KF6ILA Weather Reports


time (UTC)temp
F
wind
direction
speed
knots
gust
knots
rain 1hr
in
rain 24hr
in
rain mn
in
humidity
%
barometer
mb
20260831212049 81 260 11.3 17.4 0.00 0.00 0.00 37 1016.1
20260831210558 81 237 9.6 17.4 0.00 0.00 0.00 36 1016.4
20260831205604 81 256 9.6 19.1 0.00 0.00 0.00 35 1016.3
20260831204113 80 266 9.6 17.4 0.00 0.00 0.00 38 1016.4
20260831203616 81 225 12.2 17.4 0.00 0.00 0.00 37 1016.6
20260831202622 81 235 8.7 17.4 0.00 0.00 0.00 38 1016.6
20260831201131 80 206 7.8 17.4 0.00 0.00 0.00 39 1016.5
20260831200634 80 218 10.4 16.5 0.00 0.00 0.00 39 1016.6
20260831200137 80 238 8.7 16.5 0.00 0.00 0.00 40 1016.8
20260831195143 80 253 3.5 16.5 0.00 0.00 0.00 40 1016.8
20260831194646 81 223 9.6 16.5 0.00 0.00 0.00 39 1016.8
20260831194149 80 236 6.1 19.1 0.00 0.00 0.00 41 1016.9
20260831193652 80 239 7.8 19.1 0.00 0.00 0.00 41 1016.9
20260831193155 79 271 9.6 19.1 0.00 0.00 0.00 42 1016.9
20260831192201 79 222 12.2 17.4 0.00 0.00 0.00 42
20260831190710 79 217 12.2 19.1 0.00 0.00 0.00 37 1017.2
20260831185219 79 213 11.3 18.2 0.00 0.00 0.00 37 1017.1
20260831183728 78 211 7.8 17.4 0.00 0.00 0.00 38 1017.2
20260831183231 78 212 12.2 17.4 0.00 0.00 0.00 39 1017.2
20260831182237 78 229 6.1 17.4 0.00 0.00 0.00 36 1017.3
20260831180746 78 214 10.4 15.6 0.00 0.00 0.00 36 1017.1
20260831180249 79 211 9.6 13.9 0.00 0.00 0.00 35 1017.0
20260831175752 78 273 8.7 15.6 0.00 0.00 0.00 34 1017.1
20260831175255 78 250 7.0 15.6 0.00 0.00 0.00 34 1017.2
20260831174758 78 276 7.8 16.5 0.00 0.00 0.00 33 1017.1
20260831174301 78 269 9.6 16.5 0.00 0.00 0.00 34 1017.1
20260831173804 78 219 9.6 15.6 0.00 0.00 0.00 33 1016.2
20260831173307 78 246 5.2 13.9 0.00 0.00 0.00 34 1016.2
20260831172810 78 222 9.6 17.4 0.00 0.00 0.00 36 1016.3
20260831172313 77 237 5.2 17.4 0.00 0.00 0.00 33 1016.3
20260831171816 77 222 10.4 17.4 0.00 0.00 0.00 31 1016.2
20260831170325 76 259 7.8 13.9 0.00 0.00 0.00 30 1015.9
20260831165828 76 236 5.2 16.5 0.00 0.00 0.00 29 1015.9
20260831164834 76 265 9.6 14.8 0.00 0.00 0.00 27 1015.8
20260831164337 76 267 6.1 13.9 0.00 0.00 0.00 26 1015.8
20260831163840 75 266 8.7 13.9 0.00 0.00 0.00 26 1015.8
20260831163343 75 267 6.1 17.4 0.00 0.00 0.00 26 1015.9
20260831155904 74 256 7.0 14.8 0.00 0.00 0.00 23 1015.6
20260831155407 73 259 9.6 15.6 0.00 0.00 0.00 22 1015.4
20260831154413 72 270 11.3 17.4 0.00 0.00 0.00 23 1015.5
20260831153419 71 270 12.2 18.2 0.00 0.00 0.00 23 1015.4
20260831145940 69 260 12.2 19.1 0.00 0.00 0.00 25 1015.0
20260831145443 69 260 12.2 19.1 0.00 0.00 0.00 25 1014.9
20260831144449 68 259 13.0 19.1 0.00 0.00 0.00 25 1014.9
20260831143952 68 256 13.0 19.1 0.00 0.00 0.00 25 1014.9
20260831142958 67 256 13.0 18.2 0.00 0.00 0.00 26 1014.7
20260831142501 67 250 13.9 19.1 0.00 0.00 0.00 26 1014.7
20260831141011 66 254 11.3 18.2 0.00 0.00 0.00 28 1014.5
20260831140513 66 253 12.2 18.2 0.00 0.00 0.00 28 1014.5
20260831135519 65 251 13.9 18.2 0.00 0.00 0.00 28 1014.1
20260831134029 65 250 13.9 19.1 0.00 0.00 0.00 28 1014.6
20260831133532 65 250 12.2 18.2 0.00 0.00 0.00 28 1014.5
20260831133034 65 250 13.0 19.1 0.00 0.00 0.00 28 1014.5
20260831132537 65 252 13.9 19.1 0.00 0.00 0.00 28 1014.5
20260831132041 65 256 13.9 19.1 0.00 0.00 0.00 28 1014.5
20260831125556 66 255 14.8 19.1 0.00 0.00 0.00 27 1014.2
20260831125059 66 256 13.0 19.1 0.00 0.00 0.00 26 1014.2
20260831124105 66 252 13.9 20.9 0.00 0.00 0.00 26 1014.2
20260831123607 66 259 15.6 20.9 0.00 0.00 0.00 26 1014.2
20260831123111 66 254 14.8 20.9 0.00 0.00 0.00 26 1014.2
20260831122613 66 251 14.8 20.9 0.00 0.00 0.00 27 1014.0
20260831121619 66 253 14.8 20.9 0.00 0.00 0.00 26 1014.1
20260831120625 66 252 15.6 21.7 0.00 0.00 0.00 26 1013.9
20260831120129 66 253 14.8 21.7 0.00 0.00 0.00 26 1013.9
20260831115135 66 258 15.6 20.9 0.00 0.00 0.00 26 1014.0
20260831114638 66 256 13.9 20.9 0.00 0.00 0.00 26 1014.0
20260831113644 66 253 13.9 20.9 0.00 0.00 0.00 27 1014.0
20260831112649 66 261 12.2 20.0 0.00 0.00 0.00 27 1014.0
20260831112153 66 257 13.9 20.0 0.00 0.00 0.00 27 1014.0
20260831105708 66 256 16.5 20.9 0.00 0.00 0.00 27 1013.8
20260831104217 66 255 14.8 21.7 0.00 0.00 0.00 28 1014.0
20260831103720 66 258 13.0 20.9 0.00 0.00 0.00 29 1013.9
20260831102229 66 256 13.0 22.6 0.00 0.00 0.00 31 1014.0
20260831101235 66 257 14.8 20.0 0.00 0.00 0.00 33 1014.1
20260831100738 66 249 14.8 20.0 0.00 0.00 0.00 34 1014.0
20260831095744 66 248 13.9 20.9 0.00 0.00 0.00 35 1014.0
20260831095247 66 257 14.8 20.9 0.00 0.00 0.00 35 1014.0
20260831094750 66 258 13.9 20.9 0.00 0.00 0.00 36 1014.2
20260831094253 66 253 13.0 19.1 0.00 0.00 0.00 36 1014.2
20260831093259 66 256 13.0 20.0 0.00 0.00 0.00 36 1014.1
20260831092802 67 257 13.0 20.9 0.00 0.00 0.00 36 1014.1
20260831092306 67 258 11.3 22.6 0.00 0.00 0.00 36 1014.2
20260831091808 67 259 13.9 22.6 0.00 0.00 0.00 36 1014.2
20260831091311 67 258 13.0 18.2 0.00 0.00 0.00 35 1014.2
20260831090317 67 246 12.2 20.9 0.00 0.00 0.00 35 1014.3
20260831085323 67 254 12.2 19.1 0.00 0.00 0.00 36 1014.3
20260831084329 67 247 13.9 20.9 0.00 0.00 0.00 36 1014.4
20260831083832 67 252 15.6 20.9 0.00 0.00 0.00 37 1014.5
20260831083335 67 253 13.0 20.0 0.00 0.00 0.00 39 1014.4
20260831082341 67 253 14.8 20.9 0.00 0.00 0.00 39 1014.4
20260831081844 68 252 15.6 20.9 0.00 0.00 0.00 39 1014.6
20260831081347 68 245 14.8 19.1 0.00 0.00 0.00 40 1014.7
20260831080850 68 246 13.0 20.9 0.00 0.00 0.00 38 1014.7
20260831075856 68 245 12.2 20.0 0.00 0.00 0.00 40 1014.8
20260831074902 67 242 14.8 20.0 0.00 0.00 0.00 41 1014.8
20260831074405 67 254 14.8 20.0 0.00 0.00 0.00 41 1014.9
20260831073908 67 249 13.9 20.0 0.00 0.00 0.00 43 1014.8
20260831072914 67 246 13.9 19.1 0.00 0.00 0.00 42 1014.8
20260831072417 68 241 12.2 18.2 0.00 0.00 0.00 41 1014.8
20260831071920 68 245 11.3 17.4 0.00 0.00 0.00 41 1014.7
20260831071423 68 248 13.0 17.4 0.00 0.00 0.00 42 1014.8
20260831070926 68 245 13.0 18.2 0.00 0.00 0.00 42 1014.8
20260831065932 68 252 12.2 17.4 0.00 0.00 0.00 41 1014.8
20260831063944 68 256 7.0 14.8 0.00 0.00 0.00 40 1014.9
20260831063447 69 254 8.7 15.6 0.00 0.00 0.00 39 1014.8
20260831062950 69 246 9.6 17.4 0.00 0.00 0.00 38 1014.8
20260831062453 69 248 12.2 17.4 0.00 0.00 0.00 38 1014.9
20260831061956 69 254 9.6 16.5 0.00 0.00 0.00 38 1014.6
20260831061459 69 250 10.4 18.2 0.00 0.00 0.00 38 1014.7
20260831061002 69 255 12.2 18.2 0.00 0.00 0.00 37 1014.7
20260831055014 69 262 8.7 14.8 0.00 0.00 0.00 33 1014.6
20260831054517 69 263 10.4 14.8 0.00 0.00 0.00 34 1014.6
20260831053523 69 258 8.7 16.5 0.00 0.00 0.00 38 1014.6
20260831053026 69 257 11.3 16.5 0.00 0.00 0.00 38 1014.6
20260831051535 69 255 10.4 18.2 0.00 0.00 0.00 41 1015.3
20260831051038 69 259 12.2 18.2 0.00 0.00 0.00 41 1015.3
20260831050541 68 255 10.4 17.4 0.00 0.00 0.00 43 1015.2
20260831044553 68 254 12.2 16.5 0.00 0.00 0.00 47 1015.3
20260831044056 68 254 11.3 16.5 0.00 0.00 0.00 49 1015.4
20260831042108 68 249 11.3 17.4 0.00 0.00 0.00 57 1015.2
20260831041611 68 251 9.6 17.4 0.00 0.00 0.00 58 1015.2
20260831041114 68 259 12.2 17.4 0.00 0.00 0.00 59 1015.2
20260831040617 67 258 10.4 16.5 0.00 0.00 0.00 59 1015.1
20260831033635 68 258 10.4 18.2 0.00 0.00 0.00 64 1014.8
20260831032641 68 257 12.2 17.4 0.00 0.00 0.00 63 1014.5
20260831032144 67 248 11.3 17.4 0.00 0.00 0.00 65 1014.6
20260831031647 67 255 11.3 15.6 0.00 0.00 0.00 66 1014.5
20260831030653 68 247 12.2 16.5 0.00 0.00 0.00 67 1014.5
20260831030156 68 254 11.3 20.0 0.00 0.00 0.00 67 1014.5
20260831025659 68 249 12.2 20.0 0.00 0.00 0.00 67 1014.5
20260831024208 68 256 13.0 18.2 0.00 0.00 0.00 66 1014.5
20260831023711 69 255 11.3 17.4 0.00 0.00 0.00 65 1014.5
20260831023214 69 260 12.2 16.5 0.00 0.00 0.00 64 1014.5
20260831022717 69 267 13.0 17.4 0.00 0.00 0.00 63 1014.4
20260831022220 70 265 12.2 19.1 0.00 0.00 0.00 62 1014.5
20260831021723 70 266 13.0 19.1 0.00 0.00 0.00 61 1014.4
20260831020232 72 258 13.9 19.1 0.00 0.00 0.00 56 1014.2
20260831015735 72 256 10.4 21.7 0.00 0.00 0.00 54 1014.2
20260831015238 73 267 9.6 21.7 0.00 0.00 0.00 53 1014.1
20260831014741 73 256 16.5 21.7 0.00 0.00 0.00 51 1014.1
20260831014244 73 259 16.5 21.7 0.00 0.00 0.00 50 1014.1
20260831013747 74 257 16.5 21.7 0.00 0.00 0.00 48 1014.0
20260831013250 74 259 14.8 21.7 0.00 0.00 0.00 47 1014.1
20260831012753 75 262 16.5 23.5 0.00 0.00 0.00 46 1014.1
20260831012256 75 263 16.5 23.5 0.00 0.00 0.00 44 1014.1
20260831011759 75 256 16.5 23.5 0.00 0.00 0.00 44 1014.1
20260831011302 76 259 15.6 23.5 0.00 0.00 0.00 44 1014.0
20260831010805 76 257 14.8 22.6 0.00 0.00 0.00 42 1014.0
20260831010308 77 260 16.5 21.7 0.00 0.00 0.00 40 1014.1
20260831005811 78 271 13.0 19.1 0.00 0.00 0.00 40 1014.2
20260831004817 78 266 13.0 21.7 0.00 0.00 0.00 39 1014.2
20260831004320 79 281 14.8 21.7 0.00 0.00 0.00 38 1014.3
20260831003823 79 267 9.6 18.2 0.00 0.00 0.00 38 1014.2
20260831003326 79 281 7.8 21.7 0.00 0.00 0.00 39 1014.2
20260831002829 79 272 12.2 21.7 0.00 0.00 0.00 38 1014.3
20260831002332 80 267 13.0 19.1 0.00 0.00 0.00 36 1014.4
20260831001835 80 266 11.3 19.1 0.00 0.00 0.00 36 1014.5
20260831001338 80 255 9.6 20.0 0.00 0.00 0.00 35 1014.6
20260831000841 80 258 14.8 20.9 0.00 0.00 0.00 33 1014.3
20260831000344 80 267 11.3 20.9 0.00 0.00 0.00 33 1014.4
20260830235847 80 261 14.8 20.9 0.00 0.00 0.00 32 1014.5
20260830235350 81 257 10.4 20.9 0.00 0.00 0.00 32 1014.6
20260830234853 81 264 13.9 20.9 0.00 0.00 0.00 31 1014.6
20260830234356 81 262 12.2 20.0 0.00 0.00 0.00 32 1014.7
20260830233859 81 255 11.3 20.0 0.00 0.00 0.00 31 1014.8
20260830233402 81 244 12.2 20.0 0.00 0.00 0.00 30 1014.7
20260830232408 82 261 9.6 20.9 0.00 0.00 0.00 31 1014.7
20260830231911 82 277 14.8 20.0 0.00 0.00 0.00 32 1014.5
20260830231414 82 271 13.9 20.9 0.00 0.00 0.00 31 1014.6
20260830230917 82 257 13.9 21.7 0.00 0.00 0.00 31 1014.7
20260830225923 83 241 13.0 20.9 0.00 0.00 0.00 32 1014.9
20260830225426 83 265 11.3 20.9 0.00 0.00 0.00 32 1015.0
20260830224929 83 269 11.3 19.1 0.00 0.00 0.00 31 1014.9
20260830222941 83 293 9.6 19.1 0.00 0.00 0.00 32 1015.2
20260830222444 83 255 11.3 18.2 0.00 0.00 0.00 32 1015.2
20260830221947 84 259 11.3 18.2 0.00 0.00 0.00 32 1015.1
20260830221450 84 252 11.3 18.2 0.00 0.00 0.00 32 1015.1
20260830220953 84 292 11.3 20.9 0.00 0.00 0.00 32 1015.1
20260830220456 85 245 10.4 20.9 0.00 0.00 0.00 33 1015.2
20260830215959 86 284 11.3 17.4 0.00 0.00 0.00 32 1015.2
20260830215502 85 268 5.2 15.6 0.00 0.00 0.00 33 1015.2
20260830214508 84 245 12.2 20.0 0.00 0.00 0.00 34 1015.3
20260830214011 84 292 10.4 19.1 0.00 0.00 0.00 34 1015.4
20260830213017 85 255 8.7 17.4 0.00 0.00 0.00 34 1015.5